Turtle Army
Rank & League
Silver
Map tier
Medium
Pro runs
211
Avg pro place
84 /100
COMPLETION (PRO)
10.8% of 1961 maps
1st places
0
2nd places
1
3rd places
4
| Map | Time | CP/GC | Date |
|---|---|---|---|
| hb_babe | 43:09.820 | 26/401 | 25.04.2026 |
| km_nukked_h | 35:44.140 | 0/0 | 19.04.2026 |
| kz_xj_communitybhop | 35:26.120 | 0/0 | 18.04.2026 |
| kzcn_thy_Photobhop | 31:43.200 | 3/264 | 16.04.2026 |
| bkz_goldbhop_h | 24:37.620 | 26/52 | 18.04.2026 |
| bkz_bhopvalley | 24:19.030 | 0/0 | 29.03.2026 |
| ccn_make | 22:31.570 | 56/518 | 15.03.2026 |
| rush_qubish_ez | 22:28.120 | 62/489 | 21.03.2026 |
| bkz_aztecblock | 18:13.930 | 0/0 | 29.03.2026 |
| kz_phoogi | 17:39.480 | 0/0 | 26.03.2026 |
| kzcn_oasis_fix | 17:36.370 | 75/189 | 25.04.2026 |
| kz_toscana | 17:25.750 | 87/54 | 03.05.2026 |
| kzfr_bk_bhopblock | 16:37.016 | 0/0 | 05.04.2026 |
| newage_ar1 | 15:55.016 | 83/166 | 25.04.2026 |
| fu_darkhop | 15:13.507 | 0/0 | 18.04.2026 |
| kzz_bhop_e | 14:45.367 | 5/20 | 18.04.2026 |
| ins_fuji | 14:05.443 | 0/0 | 26.04.2026 |
| kz_man_bigezclimb | 13:52.660 | 0/0 | 19.04.2026 |
| kzp_sepulchre | 13:20.648 | 0/0 | 26.04.2026 |
| mh_winterhops | 13:14.224 | 15/62 | 06.03.2026 |
| ty_ccr | 12:51.421 | 6/192 | 25.04.2026 |
| kz_canyon | 12:35.922 | 0/0 | 03.05.2026 |
| bn_tombbhop | 12:19.991 | 1/2 | 06.03.2026 |
| smk_hnseu_dirtbhops | 11:37.634 | 0/0 | 08.03.2026 |
| qx_impressive | 10:35.012 | 0/0 | 15.03.2026 |
| kzro_synthcore | 10:28.545 | 0/0 | 13.04.2026 |
| kzlt_dryhop | 10:17.750 | 17/124 | 29.04.2026 |
| kz_man_temple | 10:10.120 | 0/0 | 16.04.2026 |
| kzcn_wxii_fog | 10:07.231 | 40/121 | 19.04.2026 |
| kz_adventure2 | 08:52.203 | 0/0 | 29.03.2026 |
| ms_rockbhop | 08:49.207 | 5/43 | 03.03.2026 |
| risk_sector | 08:46.124 | 0/0 | 07.03.2026 |
| kzcn_2012 | 08:44.010 | 18/38 | 03.05.2026 |
| lyy_minibhop | 08:34.018 | 0/0 | 29.03.2026 |
| notkz_bhopcolour | 08:29.111 | 0/0 | 15.03.2026 |
| kz_adverock | 08:28.352 | 85/92 | 24.04.2026 |
| bkz_whatisthis | 08:27.313 | 0/0 | 20.03.2026 |
| kzls_bhop_china | 08:21.271 | 31/127 | 26.04.2026 |
| kz_chinabl0ck | 08:07.461 | 0/0 | 18.04.2026 |
| kz_vkz_mystic | 07:57.384 | 89/125 | 08.03.2026 |
| JKR_hb_Fiona | 07:52.601 | 34/147 | 06.03.2026 |
| cd_vvn1ght_v29 | 07:21.216 | 0/0 | 25.04.2026 |
| hb_fantasm | 07:21.109 | 0/0 | 18.04.2026 |
| eec_bhop | 07:18.714 | 0/0 | 12.04.2026 |
| dokee_dawnhop | 07:18.403 | 0/0 | 25.04.2026 |
| nobkz_minimal | 07:13.939 | 0/0 | 14.04.2026 |
| kz_kzsca_bhopindustry | 07:10.407 | 0/0 | 03.03.2026 |
| kzsca_undergroundblock | 06:51.245 | 59/49 | 14.04.2026 |
| ksz_underground | 06:45.719 | 0/0 | 06.03.2026 |
| protoonhopz_ez | 06:41.712 | 0/0 | 19.03.2026 |
| qsk_qube | 06:27.048 | 30/86 | 18.04.2026 |
| kzbr_alk_minibhop | 06:25.040 | 5/93 | 29.04.2026 |
| kzeed_prohop | 06:22.471 | 0/0 | 11.04.2026 |
| cg_weirdbh0pz | 06:18.922 | 0/0 | 29.04.2026 |
| bhop_catacomb | 06:10.946 | 0/0 | 03.03.2026 |
| cy_skillrun | 06:07.244 | 18/86 | 19.04.2026 |
| kz_aztec | 06:04.974 | 21/143 | 27.04.2026 |
| crazy_fullmoon | 06:03.197 | 15/20 | 25.04.2026 |
| kzcn_mahjong | 06:02.523 | 64/66 | 08.03.2026 |
| kzcn_niubblock | 05:47.845 | 11/129 | 18.04.2026 |
| kzra_tebhop | 05:43.277 | 17/69 | 03.03.2026 |
| km_oldmine | 05:37.787 | 41/82 | 19.04.2026 |
| kz_winterdust | 05:35.796 | 0/0 | 04.05.2026 |
| mls_cliff | 05:34.105 | 21/21 | 09.04.2026 |
| fs_metalblock | 05:31.227 | 0/0 | 14.03.2026 |
| nz_hb_holy | 05:29.721 | 0/0 | 26.04.2026 |
| dr0_cliffside | 05:16.446 | 0/0 | 31.03.2026 |
| kzra_suhubhop | 05:08.043 | 0/0 | 12.03.2026 |
| mad_goldbhop_h | 05:06.901 | 0/0 | 18.04.2026 |
| dyd_hb_adantoud | 05:04.900 | 18/102 | 25.04.2026 |
| kz_kzdk_bridge2 | 05:04.520 | 0/0 | 22.03.2026 |
| kz_beachmountain | 05:00.205 | 68/61 | 10.03.2026 |
| kz_man_castle | 04:59.307 | 62/14 | 18.04.2026 |
| kz_kzus_evagria | 04:57.998 | 12/138 | 18.04.2026 |
| kz_bkz_egyptbhop | 04:55.120 | 0/0 | 04.03.2026 |
| mojito_hb_paslalala_ez | 04:51.597 | 8/66 | 24.04.2026 |
| fly_bhop_tonic | 04:46.314 | 0/0 | 17.04.2026 |
| ph_bhop_gold | 04:40.613 | 1/22 | 07.03.2026 |
| er92_speedtest | 04:40.238 | 2/12 | 31.03.2026 |
| po_roboclimb | 04:33.922 | 0/0 | 09.04.2026 |
| kz_cliffez | 04:27.793 | 40/32 | 06.04.2026 |
| kzee_ancientcanals | 04:21.678 | 0/0 | 17.04.2026 |
| c21_malle_1 | 04:19.174 | 0/0 | 04.05.2026 |
| sp1_ahegao | 04:18.157 | 38/30 | 23.03.2026 |
| ul_spring | 04:16.375 | 0/0 | 19.04.2026 |
| idw_carnifex | 04:13.445 | 0/0 | 27.04.2026 |
| cypress_sideways | 04:12.788 | 34/43 | 29.03.2026 |
| kz_beyond | 04:09.139 | 28/42 | 29.04.2026 |
| chk_cursed | 04:06.380 | 15/94 | 14.03.2026 |
| ins_ink | 04:04.147 | 0/0 | 28.04.2026 |
| mls_minecraft | 04:03.539 | 46/18 | 23.03.2026 |
| hama_to_juhx | 04:01.431 | 0/0 | 28.04.2026 |
| kz_a2_godspeed | 03:54.570 | 32/9 | 21.03.2026 |
| kzla_spiralhop | 03:52.722 | 0/0 | 05.03.2026 |
| kz_wsp_inferno | 03:51.249 | 0/0 | 13.04.2026 |
| kz_kzdk_kosovo | 03:51.149 | 3/55 | 05.04.2026 |
| hb_patchouli_v2 | 03:42.538 | 1/6 | 27.04.2026 |
| sp1_yellowconcrete | 03:33.610 | 23/81 | 01.05.2026 |
| j2s_westbl0ck | 03:32.854 | 2/15 | 27.03.2026 |
| bhop_egypt_hops | 03:32.529 | 0/0 | 17.04.2026 |
| prochallenge_bhop | 03:32.406 | 4/59 | 27.04.2026 |
| kz_emblem | 03:30.639 | 23/51 | 25.04.2026 |
| px_pharoah | 03:30.228 | 0/0 | 04.04.2026 |
| ksz_beginner_girl | 03:28.424 | 30/26 | 27.03.2026 |
| cah_lost | 03:28.011 | 12/60 | 29.04.2026 |
| kzcn_niub | 03:20.975 | 29/47 | 29.04.2026 |
| sp1_nohold | 03:19.153 | 16/69 | 09.04.2026 |
| nz_playnoob | 03:14.477 | 0/0 | 28.04.2026 |
| cLt_firstbhop | 03:07.854 | 1/14 | 01.03.2026 |
| go_fastbhop | 03:07.415 | 0/0 | 12.03.2026 |
| zink_klbk_funclimb | 03:06.827 | 0/0 | 03.05.2026 |
| kzra_undercastle | 03:06.098 | 0/0 | 18.04.2026 |
| kz_stoneblock | 03:04.337 | 48/34 | 24.04.2026 |
| kzpf_climbegypt | 03:02.742 | 1/13 | 10.04.2026 |
| sp1_redconcrete | 02:45.946 | 18/63 | 11.03.2026 |
| daza_arabblock | 02:30.479 | 0/0 | 11.04.2026 |
| bhop_slackibira | 02:29.966 | 0/0 | 17.04.2026 |
| kzbr_dust_h | 02:18.957 | 17/43 | 19.04.2026 |
| kzy_templehop | 02:16.883 | 0/0 | 25.04.2026 |
| bhop_sc | 02:06.584 | 0/0 | 25.04.2026 |
| kz_sandblock | 02:02.172 | 8/51 | 18.04.2026 |
| bhop_bumpyjump | 01:56.725 | 0/0 | 02.03.2026 |
| daza_snowblock2 | 01:56.398 | 9/27 | 25.03.2026 |
| kz_man_chessclimb | 01:49.595 | 0/0 | 16.04.2026 |
| rush_grey | 01:43.927 | 5/27 | 19.04.2026 |
| hm_zickzack | 01:42.214 | 1/21 | 22.02.2026 |
| kz_xj_rockblock | 01:38.185 | 0/0 | 27.04.2026 |
| kzcn_mount | 01:37.758 | 0/0 | 26.04.2026 |
| kz_christmas | 01:32.485 | 17/12 | 25.04.2026 |
| kz_kzro_winter | 01:32.230 | 0/0 | 18.04.2026 |
| bhop_ytt_egypt | 01:30.245 | 0/0 | 06.04.2026 |
| kzcn_climaxtrip | 01:25.327 | 0/0 | 26.04.2026 |
| 8b1_hellinashop | 01:24.619 | 10/11 | 19.04.2026 |
| gayl0rd_bhop | 01:19.076 | 0/0 | 26.04.2026 |
| hama_tooncanyon | 01:01.600 | 0/0 | 22.03.2026 |
| kzra_worlds | 00:57.980 | 0/0 | 26.03.2026 |
| kzcn_momoko | 00:56.745 | 0/0 | 18.04.2026 |
| fu_plainhop2 | 00:54.791 | 0/0 | 18.04.2026 |
| malle_hb_bigboobz | 00:53.730 | 0/0 | 26.04.2026 |
| bhop_grblor_v2 | 00:53.619 | 0/0 | 29.04.2026 |
| bkz_factory | 00:47.024 | 0/0 | 18.04.2026 |
| er92_lostcity | 00:45.631 | 0/0 | 28.04.2026 |
| kz_kzsca_greenisland | 00:41.724 | 0/0 | 16.04.2026 |
| kz_cosy_temple3 | 00:39.167 | 0/0 | 25.04.2026 |
| kz_spain | 00:34.814 | 0/0 | 07.04.2026 |
| ksz_woodup | 00:33.590 | 0/0 | 06.04.2026 |
| bhop_essy_jumps | 00:28.516 | 0/0 | 11.04.2026 |
| fu_evening | 00:26.613 | 0/0 | 02.05.2026 |
| vLy_fastrun | 00:26.479 | 0/0 | 26.04.2026 |
| pzv_liminal | 00:19.216 | 0/0 | 06.03.2026 |
| kzbg_bhopbarrels | 00:15.502 | 0/0 | 10.03.2026 |
Eesti keel
English
Español
Latviešu
Lietuvių
Suomi
Svenska